| time (UTC) | temp F | wind direction | speed MPH | gust MPH | rain 1hr in | rain 24hr in | rain mn in | humidity % | barometer mb |
| 20260507223049 | 58 | 257 | 7.0 | 16.0 | 0.00 | 0.00 | 0.00 | 76 | 1019.1 |
| 20260507221542 | 58 | 229 | 11.0 | 15.0 | 0.00 | 0.00 | 0.00 | 75 | 1019.2 |
| 20260507220033 | 59 | 250 | 7.0 | 13.0 | 0.00 | 0.00 | 0.00 | 76 | 1019.3 |
| 20260507214608 | 59 | 215 | 6.0 | 14.0 | 0.00 | 0.00 | 0.00 | 75 | 1019.3 |
| 20260507213041 | 59 | 227 | 5.0 | 12.0 | 0.00 | 0.00 | 0.00 | 75 | 1019.3 |
| 20260507211534 | 58 | 229 | 7.0 | 14.0 | 0.00 | 0.00 | 0.00 | 75 | 1019.4 |
| 20260507210042 | 59 | 252 | 6.0 | 10.0 | 0.00 | 0.00 | 0.00 | 73 | 1019.4 |
| 20260507204540 | 59 | 215 | 3.0 | 7.0 | 0.00 | 0.00 | 0.00 | 73 | 1019.4 |
| 20260507203034 | 60 | 227 | 4.0 | 10.0 | 0.00 | 0.00 | 0.00 | 73 | 1019.6 |
| 20260507201552 | 60 | 360 | 3.0 | 7.0 | 0.00 | 0.00 | 0.00 | 74 | 1019.7 |
| 20260507200039 | 59 | 221 | 4.0 | 10.0 | 0.00 | 0.00 | 0.00 | 74 | 1019.7 |
| 20260507194536 | 59 | 226 | 1.0 | 8.0 | 0.00 | 0.00 | 0.00 | 74 | 1019.8 |
| 20260507193050 | 59 | 360 | 3.0 | 8.0 | 0.00 | 0.00 | 0.00 | 74 | 1020.0 |
| 20260507190043 | 57 | 217 | 3.0 | 7.0 | 0.00 | 0.00 | 0.00 | 75 | 1020.1 |
| 20260507184535 | 57 | 231 | 3.0 | 7.0 | 0.00 | 0.00 | 0.00 | 76 | 1020.2 |
| 20260507183033 | 56 | 208 | 2.0 | 6.0 | 0.00 | 0.00 | 0.00 | 76 | 1020.3 |
| 20260507181547 | 56 | 208 | 0.0 | 4.0 | 0.00 | 0.00 | 0.00 | 77 | 1020.3 |
| 20260507180038 | 56 | 223 | 2.0 | 6.0 | 0.00 | 0.00 | 0.00 | 76 | 1020.3 |
| 20260507174551 | 55 | 240 | 1.0 | 4.0 | 0.00 | 0.00 | 0.00 | 77 | 1020.4 |
| 20260507173047 | 55 | 318 | 2.0 | 6.0 | 0.00 | 0.00 | 0.00 | 78 | 1020.6 |
| 20260507171600 | 54 | 360 | 0.0 | 6.0 | 0.00 | 0.00 | 0.00 | 78 | 1020.6 |
| 20260507170046 | 54 | 221 | 1.0 | 7.0 | 0.00 | 0.00 | 0.00 | 78 | 1020.5 |
| 20260507164603 | 53 | 360 | 0.0 | 3.0 | 0.00 | 0.00 | 0.00 | 79 | 1020.7 |
| 20260507163035 | 53 | 219 | 1.0 | 3.0 | 0.00 | 0.00 | 0.00 | 78 | 1020.7 |
| 20260507161532 | 53 | 30 | 0.0 | 0.0 | 0.00 | 0.00 | 0.00 | 79 | 1020.8 |
| 20260507160041 | 52 | 215 | 1.0 | 4.0 | 0.00 | 0.00 | 0.00 | 79 | 1020.9 |
| 20260507154535 | 52 | 228 | 0.0 | 3.0 | 0.00 | 0.00 | 0.00 | 79 | 1020.9 |
| 20260507153051 | 52 | 278 | 0.0 | 4.0 | 0.00 | 0.00 | 0.00 | 79 | 1021.0 |
| 20260507151545 | 52 | 22 | 0.0 | 0.0 | 0.00 | 0.00 | 0.00 | 80 | 1021.0 |
| 20260507150036 | 51 | 26 | 0.0 | 0.0 | 0.00 | 0.00 | 0.00 | 82 | 1021.0 |
| 20260507144550 | 49 | 26 | 0.0 | 0.0 | 0.00 | 0.00 | 0.00 | 84 | 1020.9 |
| 20260507143047 | 48 | 85 | 0.0 | 0.0 | 0.00 | 0.00 | 0.00 | 85 | 1021.0 |
| 20260507141539 | 47 | 169 | 0.0 | 0.0 | 0.00 | 0.00 | 0.00 | 86 | 1020.9 |
| 20260507140046 | 47 | 169 | 0.0 | 0.0 | 0.00 | 0.00 | 0.00 | 85 | 1020.8 |
| 20260507134544 | 47 | 169 | 0.0 | 0.0 | 0.00 | 0.00 | 0.00 | 85 | 1020.8 |
| 20260507133038 | 47 | 169 | 0.0 | 0.0 | 0.00 | 0.00 | 0.00 | 84 | 1020.8 |
| 20260507131535 | 48 | 169 | 0.0 | 0.0 | 0.00 | 0.00 | 0.00 | 84 | 1020.8 |
| 20260507124539 | 49 | 234 | 0.0 | 0.0 | 0.00 | 0.00 | 0.00 | 83 | 1020.8 |
| 20260507123053 | 50 | 360 | 0.0 | 0.0 | 0.00 | 0.00 | 0.00 | 82 | 1020.9 |
| 20260507121545 | 50 | 360 | 0.0 | 0.0 | 0.00 | 0.00 | 0.00 | 82 | 1021.0 |
| 20260507120037 | 50 | 252 | 0.0 | 0.0 | 0.00 | 0.00 | 0.00 | 82 | 1021.1 |
| 20260507114551 | 50 | 253 | 0.0 | 0.0 | 0.00 | 0.00 | 0.00 | 81 | 1021.1 |
| 20260507113047 | 51 | 253 | 0.0 | 0.0 | 0.00 | 0.00 | 0.00 | 81 | 1021.1 |
| 20260507111540 | 50 | 280 | 0.0 | 0.0 | 0.00 | 0.00 | 0.00 | 82 | 1021.2 |
| 20260507110032 | 50 | 360 | 0.0 | 0.0 | 0.00 | 0.00 | 0.00 | 82 | 1021.2 |
| 20260507104546 | 51 | 360 | 0.0 | 0.0 | 0.00 | 0.00 | 0.00 | 82 | 1021.3 |
| 20260507103059 | 51 | 360 | 0.0 | 0.0 | 0.00 | 0.00 | 0.00 | 82 | 1021.6 |
| 20260507101555 | 51 | 360 | 0.0 | 0.0 | 0.00 | 0.00 | 0.00 | 81 | 1021.5 |
| 20260507100042 | 51 | 360 | 0.0 | 0.0 | 0.00 | 0.00 | 0.00 | 82 | 1021.5 |
| 20260507094539 | 51 | 360 | 0.0 | 0.0 | 0.00 | 0.00 | 0.00 | 82 | 1021.5 |
| 20260507093033 | 51 | 232 | 0.0 | 0.0 | 0.00 | 0.00 | 0.00 | 82 | 1021.4 |
| 20260507091547 | 51 | 224 | 0.0 | 0.0 | 0.00 | 0.00 | 0.00 | 83 | 1021.5 |
| 20260507090038 | 51 | 224 | 0.0 | 0.0 | 0.00 | 0.00 | 0.00 | 83 | 1021.6 |
| 20260507084534 | 51 | 223 | 0.0 | 0.0 | 0.00 | 0.00 | 0.00 | 83 | 1021.7 |
| 20260507083031 | 51 | 233 | 0.0 | 0.0 | 0.00 | 0.00 | 0.00 | 83 | 1021.8 |
| 20260507081545 | 51 | 360 | 0.0 | 0.0 | 0.00 | 0.00 | 0.00 | 83 | 1021.8 |
| 20260507080037 | 51 | 206 | 0.0 | 0.0 | 0.00 | 0.00 | 0.00 | 83 | 1021.8 |
| 20260507074552 | 52 | 252 | 0.0 | 0.0 | 0.00 | 0.00 | 0.00 | 84 | 1021.7 |
| 20260507073045 | 52 | 260 | 0.0 | 0.0 | 0.00 | 0.00 | 0.00 | 84 | 1021.8 |
| 20260507071600 | 52 | 250 | 0.0 | 0.0 | 0.00 | 0.00 | 0.00 | 84 | 1021.8 |
| 20260507070045 | 52 | 254 | 0.0 | 0.0 | 0.00 | 0.00 | 0.00 | 84 | 1021.6 |
| 20260507064542 | 52 | 233 | 3.0 | 5.0 | 0.00 | 0.00 | 0.00 | 84 | 1021.5 |
| 20260507063035 | 52 | 264 | 0.0 | 0.0 | 0.00 | 0.00 | 0.00 | 84 | 1021.5 |
| 20260507061533 | 52 | 247 | 0.0 | 0.0 | 0.00 | 0.00 | 0.00 | 84 | 1021.6 |
| 20260507060101 | 53 | 251 | 0.0 | 0.0 | 0.00 | 0.00 | 0.00 | 85 | 1021.6 |
| 20260507054533 | 53 | 281 | 2.0 | 8.0 | 0.00 | 0.00 | 0.00 | 85 | 1021.6 |
| 20260507053051 | 53 | 261 | 3.0 | 5.0 | 0.00 | 0.00 | 0.00 | 85 | 1021.6 |
| 20260507051545 | 53 | 360 | 5.0 | 7.0 | 0.00 | 0.00 | 0.00 | 85 | 1021.7 |
| 20260507050056 | 53 | 242 | 2.0 | 5.0 | 0.00 | 0.00 | 0.00 | 85 | 1021.6 |
| 20260507044548 | 54 | 248 | 1.0 | 6.0 | 0.00 | 0.00 | 0.00 | 85 | 1021.7 |
| 20260507043042 | 54 | 253 | 1.0 | 5.0 | 0.00 | 0.00 | 0.00 | 85 | 1021.7 |
| 20260507041539 | 54 | 240 | 3.0 | 8.0 | 0.00 | 0.00 | 0.00 | 84 | 1021.7 |
| 20260507040048 | 54 | 258 | 0.0 | 0.0 | 0.00 | 0.00 | 0.00 | 83 | 1021.6 |
| 20260507034545 | 54 | 216 | 0.0 | 0.0 | 0.00 | 0.00 | 0.00 | 83 | 1021.5 |
| 20260507033059 | 54 | 282 | 0.0 | 3.0 | 0.00 | 0.00 | 0.00 | 83 | 1021.3 |
| 20260507031554 | 54 | 288 | 4.0 | 6.0 | 0.00 | 0.00 | 0.00 | 83 | 1021.4 |
| 20260507030042 | 55 | 258 | 4.0 | 5.0 | 0.00 | 0.00 | 0.00 | 82 | 1021.2 |
| 20260507024535 | 55 | 225 | 4.0 | 8.0 | 0.00 | 0.00 | 0.00 | 82 | 1021.2 |
| 20260507023034 | 55 | 261 | 5.0 | 7.0 | 0.00 | 0.00 | 0.00 | 83 | 1021.1 |
| 20260507021547 | 55 | 162 | 4.0 | 6.0 | 0.00 | 0.00 | 0.00 | 83 | 1021.1 |
| 20260507020039 | 55 | 218 | 0.0 | 7.0 | 0.00 | 0.00 | 0.00 | 84 | 1021.1 |
| 20260507014532 | 55 | 360 | 5.0 | 6.0 | 0.00 | 0.00 | 0.00 | 84 | 1021.3 |
| 20260507013050 | 55 | 251 | 5.0 | 8.0 | 0.00 | 0.00 | 0.00 | 84 | 1021.3 |
| 20260507011542 | 55 | 360 | 4.0 | 7.0 | 0.00 | 0.00 | 0.00 | 85 | 1021.3 |
| 20260507010031 | 55 | 283 | 4.0 | 8.0 | 0.00 | 0.00 | 0.00 | 84 | 1021.3 |
| 20260507004549 | 55 | 250 | 4.0 | 8.0 | 0.00 | 0.00 | 0.00 | 84 | 1021.4 |
| 20260507003102 | 55 | 267 | 0.0 | 6.0 | 0.00 | 0.00 | 0.00 | 85 | 1021.3 |
| 20260507001537 | 55 | 250 | 5.0 | 11.0 | 0.00 | 0.00 | 0.00 | 87 | 1021.3 |
| 20260507000105 | 54 | 207 | 3.0 | 5.0 | 0.00 | 0.00 | 0.00 | 87 | 1021.4 |
| 20260506234559 | 54 | 254 | 0.0 | 4.0 | 0.00 | 0.00 | 0.00 | 88 | 1021.4 |
| 20260506233035 | 54 | 259 | 3.0 | 5.0 | 0.00 | 0.00 | 0.00 | 88 | 1021.5 |
| 20260506231549 | 54 | 249 | 6.0 | 10.0 | 0.00 | 0.00 | 0.00 | 87 | 1021.6 |
| 20260506230039 | 55 | 243 | 7.0 | 10.0 | 0.00 | 0.00 | 0.00 | 86 | 1021.7 |
| 20260506224534 | 55 | 360 | 5.0 | 10.0 | 0.00 | 0.00 | 0.00 | 85 | 1021.8 |